{"data":{"norad_id":49298,"intl_designator":"2021-090V","name":"ONEWEB-0372","alt_names":[],"object_type":"PAYLOAD","status":"ACTIVE","operator":null,"country":"UK","launch_date":"2021-10-14","launch_site_code":"VOSTO","launch_vehicle":null,"mission":null,"orbit_class":"UNKNOWN","rcs_meters":null,"size_class":null,"mass_kg":null,"dimensions":null,"purposes":["comms"],"wikipedia_slug":null,"has_3d_model":false,"image_url":null,"decayed_at":null,"tle_current":{"epoch":"2026-05-24T21:42:57.170304Z","epoch_age_seconds":76655,"freshness":"FRESH","line1":"1 49298U 21090V   26144.90482836 -.00000038  00000+0 -12444-3 0  9991","line2":"2 49298  87.9177 279.0836 0001840  98.6557 261.4785 13.20769866226765","mean_motion":13.20769866,"eccentricity":0.000184,"inclination_deg":87.9177,"raan_deg":279.0836,"arg_perigee_deg":98.6557,"mean_anomaly_deg":261.4785,"bstar":-0.00012444,"rev_number":22676,"period_min":109.02732088832,"perigee_km":1180.3897771795,"apogee_km":1183.1718269306,"semimajor_km":7559.917802055,"source":"CELESTRAK","updated_at":"2026-05-25T13:38:22.523412Z"}}}